Location: Ansan
(43.6898°N, 0.7731°E)
Time: 11:43:51
(UTC+00:00)

Meteor 1-10 Rocket - Pass Details

Date: 15 May 2026
Orbit: 834 x 909 km, 81.3° (Epoch: 6 June)

Event Time Altitude Azimuth Distance (km) Brightness Sun altitude
Exits shadow 23:11:30 64° 118° (ESE) 996 4.3 -26.5°
Maximum altitude 23:11:52 66° 96° (E) 985 4.3 -26.5°
Drops below altitude 10° 23:17:46 10° 16° (NNE) 2,603 7.6 -26.7°
Sets 23:20:15 0° 13° (NNE) 3,549 8.5 -26.8°
